Location: �bnet
(46.9957°N, 8.4908°E)
Time: 14:10:12
(UTC+00:00)

Cosmos 1933 - Pass Details

Date: 11 May 2021
Orbit: 547 x 562 km, 82.5° (Epoch: 17 June)

Event Time Altitude Azimuth Distance (km) Brightness Sun altitude
Rises 20:07:34 0° 200° (SSW) 2,726 6.6 -11.6°
Reaches altitude 10° 20:09:46 10° 205° (SSW) 1,833 5.8 -11.8°
Maximum altitude 20:13:43 52° 282° (WNW) 693 4.2 -12.3°
Drops below altitude 10° 20:17:41 10° 360° (N) 1,839 6.7 -12.8°
Sets 20:19:54 0° 5° (N) 2,736 7.5 -13.1°
